,,PressureMeas_1m,,PRMeasQMR101_1,,RHStat155_1m_1,,SRMeasQMS101R_1m,,TAStat155_1m_1,,GenWind_1,,GenWind_1,
2017-04-09, 00:00:06,VALID,918.684,VALID,0.0,VALID,96.12,VALID,0.037,VALID,19.418,VALID,8.0,VALID,0.539,
2017-04-09, 00:01:06,VALID,918.694,VALID,0.0,VALID,96.042,VALID,0.027,VALID,19.434,VALID,8.0,VALID,0.67,
2017-04-09, 00:02:06,VALID,918.688,VALID,0.0,VALID,96.066,VALID,0.027,VALID,19.45,VALID,354.0,VALID,0.321,
2017-04-09, 00:03:06,VALID,918.672,VALID,0.0,VALID,95.73,VALID,0.032,VALID,19.426,VALID,341.0,VALID,0.29,
2017-04-09, 00:04:06,VALID,918.655,VALID,0.0,VALID,96.053,VALID,0.034,VALID,19.453,VALID,337.0,VALID,0.084,
2017-04-09, 00:05:06,VALID,918.643,VALID,0.0,VALID,96.105,VALID,0.034,VALID,19.47,VALID,338.0,VALID,0.0,
2017-04-09, 00:06:06,VALID,918.627,VALID,0.0,VALID,96.087,VALID,0.009,VALID,19.482,VALID,341.0,VALID,0.236,
2017-04-09, 00:07:06,VALID,918.608,VALID,0.0,VALID,95.436,VALID,0.01,VALID,19.436,VALID,341.0,VALID,0.163,
2017-04-09, 00:08:06,VALID,918.579,VALID,0.0,VALID,95.234,VALID,-0.002,VALID,19.399,VALID,341.0,VALID,0.025,
2017-04-09, 00:09:06,VALID,918.571,VALID,0.0,VALID,95.211,VALID,-0.005,VALID,19.372,VALID,344.0,VALID,0.264,
2017-04-09, 00:10:06,VALID,918.564,VALID,0.0,VALID,95.87,VALID,-0.002,VALID,19.396,VALID,1.0,VALID,0.598,
2017-04-09, 00:11:06,VALID,918.578,VALID,0.0,VALID,96.359,VALID,-0.002,VALID,19.478,VALID,2.0,VALID,0.678,
2017-04-09, 00:12:06,VALID,918.563,VALID,0.0,VALID,95.974,VALID,0.001,VALID,19.507,VALID,12.0,VALID,0.532,
2017-04-09, 00:13:06,VALID,918.57,VALID,0.0,VALID,95.767,VALID,-0.001,VALID,19.517,VALID,15.0,VALID,0.493,
2017-04-09, 00:14:06,VALID,918.577,VALID,0.0,VALID,95.652,VALID,-0.009,VALID,19.5,VALID,17.0,VALID,0.34,
2017-04-09, 00:15:06,VALID,918.581,VALID,0.0,VALID,95.581,VALID,0.003,VALID,19.483,VALID,25.0,VALID,0.451,
2017-04-09, 00:16:06,VALID,918.573,VALID,0.0,VALID,95.823,VALID,0.006,VALID,19.511,VALID,18.0,VALID,0.53,
2017-04-09, 00:17:06,VALID,918.579,VALID,0.0,VALID,95.759,VALID,0.014,VALID,19.545,VALID,9.0,VALID,0.524,
2017-04-09, 00:18:06,VALID,918.57,VALID,0.0,VALID,95.207,VALID,0.006,VALID,19.516,VALID,5.0,VALID,0.473,
2017-04-09, 00:19:06,VALID,918.56,VALID,0.0,VALID,95.781,VALID,0.004,VALID,19.556,VALID,1.0,VALID,0.457,
2017-04-09, 00:20:06,VALID,918.551,VALID,0.0,VALID,95.831,VALID,0.013,VALID,19.592,VALID,360.0,VALID,0.429,
2017-04-09, 00:21:06,VALID,918.529,VALID,0.0,VALID,95.589,VALID,-0.03,VALID,19.582,VALID,1.0,VALID,0.306,
2017-04-09, 00:22:06,VALID,918.535,VALID,0.0,VALID,95.225,VALID,-0.03,VALID,19.538,VALID,358.0,VALID,0.582,
2017-04-09, 00:23:06,VALID,918.513,VALID,0.0,VALID,95.271,VALID,-0.029,VALID,19.498,VALID,349.0,VALID,0.625,
2017-04-09, 00:24:06,VALID,918.492,VALID,0.0,VALID,95.249,VALID,-0.039,VALID,19.471,VALID,351.0,VALID,0.745,
2017-04-09, 00:25:06,VALID,918.49,VALID,0.0,VALID,95.555,VALID,-0.037,VALID,19.467,VALID,348.0,VALID,0.58,
2017-04-09, 00:26:06,VALID,918.481,VALID,0.0,VALID,95.751,VALID,-0.016,VALID,19.467,VALID,347.0,VALID,0.523,
2017-04-09, 00:27:06,VALID,918.47,VALID,0.0,VALID,95.613,VALID,-0.034,VALID,19.436,VALID,345.0,VALID,0.746,
2017-04-09, 00:28:06,VALID,918.45,VALID,0.0,VALID,95.606,VALID,-0.013,VALID,19.393,VALID,342.0,VALID,0.516,
2017-04-09, 00:29:06,VALID,918.437,VALID,0.0,VALID,95.798,VALID,-0.015,VALID,19.364,VALID,343.0,VALID,0.404,
2017-04-09, 00:30:06,VALID,918.428,VALID,0.0,VALID,96.203,VALID,-0.016,VALID,19.39,VALID,332.0,VALID,0.443,
2017-04-09, 00:31:06,VALID,918.4,VALID,0.0,VALID,96.016,VALID,-0.01,VALID,19.367,VALID,334.0,VALID,0.085,
2017-04-09, 00:32:06,VALID,918.383,VALID,0.0,VALID,96.071,VALID,-0.029,VALID,19.353,VALID,328.0,VALID,0.146,
2017-04-09, 00:33:06,VALID,918.374,VALID,0.0,VALID,96.021,VALID,-0.022,VALID,19.339,VALID,343.0,VALID,0.07,
2017-04-09, 00:34:06,VALID,918.368,VALID,0.0,VALID,96.085,VALID,-0.022,VALID,19.32,VALID,344.0,VALID,0.18,
2017-04-09, 00:35:06,VALID,918.358,VALID,0.0,VALID,96.117,VALID,-0.014,VALID,19.311,VALID,352.0,VALID,0.397,
2017-04-09, 00:36:06,VALID,918.33,VALID,0.0,VALID,96.385,VALID,-0.019,VALID,19.331,VALID,356.0,VALID,0.514,
2017-04-09, 00:37:06,VALID,918.295,VALID,0.0,VALID,96.198,VALID,-0.011,VALID,19.297,VALID,2.0,VALID,0.415,
2017-04-09, 00:38:06,VALID,918.278,VALID,0.0,VALID,96.166,VALID,-0.023,VALID,19.244,VALID,7.0,VALID,0.611,
2017-04-09, 00:39:06,VALID,918.258,VALID,0.0,VALID,96.458,VALID,-0.018,VALID,19.254,VALID,12.0,VALID,0.51,
2017-04-09, 00:40:06,VALID,918.236,VALID,0.0,VALID,96.548,VALID,-0.014,VALID,19.264,VALID,11.0,VALID,0.27,
2017-04-09, 00:41:06,VALID,918.202,VALID,0.0,VALID,96.501,VALID,-0.003,VALID,19.251,VALID,11.0,VALID,0.35,
2017-04-09, 00:42:06,VALID,918.154,VALID,0.0,VALID,96.536,VALID,-0.009,VALID,19.252,VALID,16.0,VALID,0.605,
2017-04-09, 00:43:06,VALID,918.125,VALID,0.0,VALID,96.296,VALID,-0.006,VALID,19.236,VALID,20.0,VALID,0.786,
2017-04-09, 00:44:06,VALID,918.101,VALID,0.0,VALID,96.212,VALID,-0.019,VALID,19.217,VALID,19.0,VALID,0.783,
2017-04-09, 00:45:06,VALID,918.08,VALID,0.0,VALID,96.131,VALID,-0.026,VALID,19.195,VALID,12.0,VALID,0.698,
2017-04-09, 00:46:06,VALID,918.077,VALID,0.0,VALID,96.078,VALID,-0.036,VALID,19.161,VALID,360.0,VALID,0.714,
2017-04-09, 00:47:06,VALID,918.038,VALID,0.0,VALID,96.356,VALID,-0.03,VALID,19.169,VALID,1.0,VALID,0.645,
2017-04-09, 00:48:06,VALID,918.036,VALID,0.0,VALID,96.448,VALID,-0.03,VALID,19.165,VALID,5.0,VALID,0.538,
2017-04-09, 00:49:06,VALID,918.01,VALID,0.0,VALID,96.569,VALID,-0.04,VALID,19.177,VALID,5.0,VALID,0.652,
2017-04-09, 00:50:06,VALID,917.986,VALID,0.0,VALID,96.723,VALID,-0.03,VALID,19.196,VALID,3.0,VALID,0.732,
2017-04-09, 00:51:06,VALID,917.955,VALID,0.0,VALID,96.815,VALID,0.006,VALID,19.222,VALID,360.0,VALID,0.661,
2017-04-09, 00:52:06,VALID,917.94,VALID,0.0,VALID,96.835,VALID,0.013,VALID,19.236,VALID,353.0,VALID,0.564,
2017-04-09, 00:53:06,VALID,917.911,VALID,0.0,VALID,96.968,VALID,0.02,VALID,19.267,VALID,350.0,VALID,0.423,
2017-04-09, 00:54:06,VALID,917.876,VALID,0.0,VALID,97.007,VALID,0.01,VALID,19.302,VALID,349.0,VALID,0.387,
2017-04-09, 00:55:06,VALID,917.83,VALID,0.0,VALID,96.879,VALID,0.023,VALID,19.305,VALID,350.0,VALID,0.375,
2017-04-09, 00:56:06,VALID,917.807,VALID,0.0,VALID,96.903,VALID,0.019,VALID,19.32,VALID,358.0,VALID,0.345,
2017-04-09, 00:57:06,VALID,917.794,VALID,0.0,VALID,96.769,VALID,0.026,VALID,19.318,VALID,352.0,VALID,0.338,
2017-04-09, 00:58:06,VALID,917.785,VALID,0.0,VALID,96.655,VALID,0.015,VALID,19.286,VALID,348.0,VALID,0.395,
2017-04-09, 00:59:06,VALID,917.766,VALID,0.0,VALID,96.448,VALID,0.033,VALID,19.243,VALID,327.0,VALID,0.47,
2017-04-09, 01:00:06,VALID,917.738,VALID,0.0,VALID,96.623,VALID,0.025,VALID,19.258,VALID,328.0,VALID,0.178,
2017-04-09, 01:01:06,VALID,917.711,VALID,0.0,VALID,96.556,VALID,0.019,VALID,19.247,VALID,317.0,VALID,0.064,
2017-04-09, 01:02:06,VALID,917.69,VALID,0.0,VALID,96.615,VALID,0.031,VALID,19.248,VALID,295.0,VALID,0.042,
2017-04-09, 01:03:06,VALID,917.667,VALID,0.0,VALID,96.751,VALID,0.023,VALID,19.237,VALID,275.0,VALID,0.108,
2017-04-09, 01:04:06,VALID,917.656,VALID,0.0,VALID,96.824,VALID,0.027,VALID,19.209,VALID,274.0,VALID,0.047,
2017-04-09, 01:05:06,VALID,917.644,VALID,0.0,VALID,96.677,VALID,0.022,VALID,19.17,VALID,284.0,VALID,0.23,
2017-04-09, 01:06:06,VALID,917.626,VALID,0.0,VALID,96.718,VALID,0.001,VALID,19.163,VALID,297.0,VALID,0.232,
2017-04-09, 01:07:06,VALID,917.604,VALID,0.0,VALID,96.895,VALID,0.007,VALID,19.181,VALID,295.0,VALID,0.138,
2017-04-09, 01:08:06,VALID,917.58,VALID,0.0,VALID,97.054,VALID,-0.025,VALID,19.208,VALID,298.0,VALID,0.019,
2017-04-09, 01:09:06,VALID,917.555,VALID,0.0,VALID,97.113,VALID,-0.014,VALID,19.241,VALID,320.0,VALID,0.027,
2017-04-09, 01:10:06,VALID,917.545,VALID,0.0,VALID,97.006,VALID,-0.009,VALID,19.242,VALID,320.0,VALID,0.0,
2017-04-09, 01:11:06,VALID,917.515,VALID,0.0,VALID,96.971,VALID,-0.023,VALID,19.223,VALID,320.0,VALID,0.0,
2017-04-09, 01:12:06,VALID,917.514,VALID,0.0,VALID,96.977,VALID,-0.001,VALID,19.196,VALID,320.0,VALID,0.0,
2017-04-09, 01:13:06,VALID,917.511,VALID,0.0,VALID,96.548,VALID,-0.0,VALID,19.113,VALID,320.0,VALID,0.0,
2017-04-09, 01:14:06,VALID,917.495,VALID,0.0,VALID,96.244,VALID,-0.011,VALID,19.031,VALID,320.0,VALID,0.0,
2017-04-09, 01:15:06,VALID,917.476,VALID,0.0,VALID,96.202,VALID,0.004,VALID,18.996,VALID,320.0,VALID,0.0,
2017-04-09, 01:16:06,VALID,917.483,VALID,0.0,VALID,96.668,VALID,0.004,VALID,19.039,VALID,320.0,VALID,0.0,
2017-04-09, 01:17:06,VALID,917.46,VALID,0.0,VALID,96.955,VALID,-0.0,VALID,19.086,VALID,320.0,VALID,0.0,
2017-04-09, 01:18:06,VALID,917.456,VALID,0.0,VALID,96.905,VALID,-0.002,VALID,19.082,VALID,320.0,VALID,0.0,
2017-04-09, 01:19:06,VALID,917.442,VALID,0.0,VALID,96.677,VALID,-0.004,VALID,19.001,VALID,320.0,VALID,0.0,
2017-04-09, 01:20:06,VALID,917.418,VALID,0.0,VALID,96.08,VALID,-0.013,VALID,18.837,VALID,320.0,VALID,0.025,
2017-04-09, 01:21:06,VALID,917.403,VALID,0.0,VALID,96.408,VALID,0.018,VALID,18.814,VALID,320.0,VALID,0.001,
2017-04-09, 01:22:06,VALID,917.395,VALID,0.0,VALID,97.137,VALID,0.024,VALID,18.911,VALID,320.0,VALID,0.0,
2017-04-09, 01:23:06,VALID,917.387,VALID,0.0,VALID,96.738,VALID,0.041,VALID,18.806,VALID,320.0,VALID,0.118,
2017-04-09, 01:24:06,VALID,917.361,VALID,0.0,VALID,96.236,VALID,0.015,VALID,18.663,VALID,320.0,VALID,0.093,
2017-04-09, 01:25:06,VALID,917.351,VALID,0.0,VALID,96.359,VALID,0.028,VALID,18.625,VALID,318.0,VALID,0.05,
2017-04-09, 01:26:06,VALID,917.335,VALID,0.0,VALID,96.762,VALID,0.023,VALID,18.679,VALID,318.0,VALID,0.039,
2017-04-09, 01:27:06,VALID,917.307,VALID,0.0,VALID,97.189,VALID,0.015,VALID,18.765,VALID,318.0,VALID,0.111,
2017-04-09, 01:28:06,VALID,917.286,VALID,0.0,VALID,96.895,VALID,0.017,VALID,18.69,VALID,318.0,VALID,0.108,
2017-04-09, 01:29:06,VALID,917.29,VALID,0.0,VALID,96.961,VALID,0.034,VALID,18.664,VALID,338.0,VALID,0.276,
2017-04-09, 01:30:06,VALID,917.275,VALID,0.0,VALID,97.757,VALID,0.023,VALID,18.863,VALID,6.0,VALID,0.624,
2017-04-09, 01:31:06,VALID,917.264,VALID,0.0,VALID,97.859,VALID,0.027,VALID,18.971,VALID,11.0,VALID,0.816,
2017-04-09, 01:32:06,VALID,917.247,VALID,0.0,VALID,97.698,VALID,0.024,VALID,18.991,VALID,10.0,VALID,0.836,
2017-04-09, 01:33:06,VALID,917.227,VALID,0.0,VALID,97.496,VALID,0.036,VALID,18.972,VALID,7.0,VALID,0.568,
2017-04-09, 01:34:06,VALID,917.213,VALID,0.0,VALID,97.401,VALID,0.03,VALID,18.95,VALID,358.0,VALID,0.559,
2017-04-09, 01:35:06,VALID,917.212,VALID,0.0,VALID,97.46,VALID,0.024,VALID,18.966,VALID,353.0,VALID,0.687,
2017-04-09, 01:36:06,VALID,917.189,VALID,0.0,VALID,97.525,VALID,0.008,VALID,19.012,VALID,360.0,VALID,0.695,
2017-04-09, 01:37:06,VALID,917.176,VALID,0.0,VALID,97.444,VALID,0.004,VALID,19.052,VALID,8.0,VALID,0.946,
2017-04-09, 01:38:06,VALID,917.17,VALID,0.0,VALID,97.258,VALID,0.012,VALID,19.053,VALID,9.0,VALID,0.705,
2017-04-09, 01:39:06,VALID,917.157,VALID,0.0,VALID,96.97,VALID,0.013,VALID,19.02,VALID,1.0,VALID,0.863,
2017-04-09, 01:40:06,VALID,917.122,VALID,0.0,VALID,97.048,VALID,0.022,VALID,19.04,VALID,2.0,VALID,0.873,
2017-04-09, 01:41:06,VALID,917.094,VALID,0.0,VALID,96.973,VALID,0.015,VALID,19.041,VALID,5.0,VALID,0.859,
2017-04-09, 01:42:06,VALID,917.073,VALID,0.0,VALID,97.128,VALID,0.019,VALID,19.109,VALID,7.0,VALID,1.043,
2017-04-09, 01:43:06,VALID,917.063,VALID,0.0,VALID,97.011,VALID,0.014,VALID,19.18,VALID,6.0,VALID,0.793,
2017-04-09, 01:44:06,VALID,917.062,VALID,0.0,VALID,96.565,VALID,0.009,VALID,19.182,VALID,360.0,VALID,0.509,
2017-04-09, 01:45:06,VALID,917.036,VALID,0.0,VALID,96.211,VALID,0.022,VALID,19.129,VALID,5.0,VALID,1.0,
2017-04-09, 01:46:06,VALID,917.012,VALID,0.0,VALID,96.325,VALID,0.021,VALID,19.103,VALID,11.0,VALID,1.33,
2017-04-09, 01:47:06,VALID,917.006,VALID,0.0,VALID,96.454,VALID,0.023,VALID,19.146,VALID,9.0,VALID,0.923,
2017-04-09, 01:48:06,VALID,916.996,VALID,0.0,VALID,96.434,VALID,0.03,VALID,19.21,VALID,9.0,VALID,0.726,
2017-04-09, 01:49:06,VALID,916.968,VALID,0.0,VALID,96.256,VALID,0.027,VALID,19.297,VALID,14.0,VALID,0.469,
2017-04-09, 01:50:06,VALID,916.945,VALID,0.0,VALID,95.935,VALID,0.018,VALID,19.355,VALID,15.0,VALID,0.166,
2017-04-09, 01:51:06,VALID,916.934,VALID,0.0,VALID,95.558,VALID,-0.027,VALID,19.364,VALID,15.0,VALID,0.0,
2017-04-09, 01:52:06,VALID,916.914,VALID,0.0,VALID,95.336,VALID,-0.025,VALID,19.352,VALID,15.0,VALID,0.0,
2017-04-09, 01:53:06,VALID,916.915,VALID,0.0,VALID,94.974,VALID,-0.04,VALID,19.313,VALID,14.0,VALID,0.005,
2017-04-09, 01:54:06,VALID,916.888,VALID,0.0,VALID,94.841,VALID,-0.041,VALID,19.293,VALID,2.0,VALID,0.46,
2017-04-09, 01:55:06,VALID,916.88,VALID,0.0,VALID,94.548,VALID,-0.033,VALID,19.277,VALID,8.0,VALID,0.727,
2017-04-09, 01:56:06,VALID,916.863,VALID,0.0,VALID,94.695,VALID,-0.027,VALID,19.269,VALID,21.0,VALID,0.42,
2017-04-09, 01:57:06,VALID,916.844,VALID,0.0,VALID,93.925,VALID,-0.043,VALID,19.172,VALID,20.0,VALID,0.172,
2017-04-09, 01:58:06,VALID,916.829,VALID,0.0,VALID,93.833,VALID,-0.033,VALID,19.069,VALID,22.0,VALID,0.0,
2017-04-09, 01:59:06,VALID,916.816,VALID,0.0,VALID,93.351,VALID,-0.031,VALID,18.97,VALID,18.0,VALID,0.026,
2017-04-09, 02:00:06,VALID,916.792,VALID,0.0,VALID,94.965,VALID,-0.041,VALID,19.007,VALID,279.0,VALID,0.176,
2017-04-09, 02:01:06,VALID,916.759,VALID,0.0,VALID,96.26,VALID,-0.048,VALID,19.098,VALID,284.0,VALID,0.125,
2017-04-09, 02:02:06,VALID,916.713,VALID,0.0,VALID,95.223,VALID,-0.032,VALID,18.99,VALID,304.0,VALID,0.058,
2017-04-09, 02:03:06,VALID,916.676,VALID,0.0,VALID,93.97,VALID,-0.049,VALID,18.824,VALID,311.0,VALID,0.023,
2017-04-09, 02:04:06,VALID,916.635,VALID,0.0,VALID,95.13,VALID,-0.037,VALID,18.793,VALID,312.0,VALID,0.068,
2017-04-09, 02:05:06,VALID,916.61,VALID,0.0,VALID,95.154,VALID,-0.033,VALID,18.701,VALID,330.0,VALID,0.1,
2017-04-09, 02:06:06,VALID,916.59,VALID,0.0,VALID,94.964,VALID,0.006,VALID,18.585,VALID,28.0,VALID,0.298,
2017-04-09, 02:07:06,VALID,916.594,VALID,0.0,VALID,95.721,VALID,-0.007,VALID,18.563,VALID,29.0,VALID,0.237,
2017-04-09, 02:08:06,VALID,916.584,VALID,0.0,VALID,96.495,VALID,-0.006,VALID,18.609,VALID,29.0,VALID,0.051,
2017-04-09, 02:09:06,VALID,916.576,VALID,0.0,VALID,96.907,VALID,0.005,VALID,18.655,VALID,28.0,VALID,0.146,
2017-04-09, 02:10:06,VALID,916.561,VALID,0.0,VALID,97.205,VALID,0.009,VALID,18.722,VALID,26.0,VALID,0.346,
2017-04-09, 02:11:06,VALID,916.554,VALID,0.0,VALID,97.248,VALID,-0.004,VALID,18.749,VALID,26.0,VALID,0.614,
2017-04-09, 02:12:06,VALID,916.53,VALID,0.0,VALID,97.241,VALID,-0.012,VALID,18.765,VALID,25.0,VALID,0.748,
2017-04-09, 02:13:06,VALID,916.528,VALID,0.0,VALID,97.403,VALID,-0.011,VALID,18.818,VALID,33.0,VALID,0.892,
2017-04-09, 02:14:06,VALID,916.531,VALID,0.0,VALID,97.297,VALID,-0.007,VALID,18.825,VALID,34.0,VALID,0.505,
2017-04-09, 02:15:06,VALID,916.522,VALID,0.0,VALID,97.08,VALID,-0.008,VALID,18.784,VALID,29.0,VALID,0.184,
2017-04-09, 02:16:06,VALID,916.512,VALID,0.0,VALID,96.948,VALID,0.004,VALID,18.74,VALID,25.0,VALID,0.023,
2017-04-09, 02:17:06,VALID,916.492,VALID,0.0,VALID,96.865,VALID,-0.001,VALID,18.711,VALID,25.0,VALID,0.0,
2017-04-09, 02:18:06,VALID,916.479,VALID,0.0,VALID,96.75,VALID,-0.008,VALID,18.671,VALID,25.0,VALID,0.0,
2017-04-09, 02:19:06,VALID,916.445,VALID,0.0,VALID,96.518,VALID,0.005,VALID,18.599,VALID,25.0,VALID,0.0,
2017-04-09, 02:20:06,VALID,916.447,VALID,0.0,VALID,96.447,VALID,0.009,VALID,18.552,VALID,25.0,VALID,0.0,
2017-04-09, 02:21:06,VALID,916.426,VALID,0.0,VALID,96.554,VALID,-0.017,VALID,18.533,VALID,25.0,VALID,0.0,
2017-04-09, 02:22:06,VALID,916.425,VALID,0.0,VALID,96.535,VALID,-0.014,VALID,18.494,VALID,25.0,VALID,0.018,
2017-04-09, 02:23:06,VALID,916.416,VALID,0.0,VALID,96.354,VALID,-0.025,VALID,18.417,VALID,42.0,VALID,0.1,
2017-04-09, 02:24:06,VALID,916.404,VALID,0.0,VALID,96.544,VALID,-0.027,VALID,18.392,VALID,95.0,VALID,0.307,
2017-04-09, 02:25:06,VALID,916.378,VALID,0.0,VALID,96.539,VALID,-0.031,VALID,18.344,VALID,106.0,VALID,0.024,
2017-04-09, 02:26:06,VALID,916.361,VALID,0.0,VALID,96.499,VALID,-0.03,VALID,18.295,VALID,106.0,VALID,0.012,
2017-04-09, 02:27:06,VALID,916.351,VALID,0.0,VALID,96.751,VALID,-0.013,VALID,18.305,VALID,106.0,VALID,0.0,
2017-04-09, 02:28:06,VALID,916.334,VALID,0.0,VALID,97.119,VALID,-0.018,VALID,18.37,VALID,106.0,VALID,0.0,
2017-04-09, 02:29:06,VALID,916.311,VALID,0.0,VALID,97.411,VALID,-0.025,VALID,18.451,VALID,106.0,VALID,0.0,
2017-04-09, 02:30:06,VALID,916.288,VALID,0.0,VALID,97.155,VALID,-0.012,VALID,18.412,VALID,97.0,VALID,0.021,
2017-04-09, 02:31:06,VALID,916.275,VALID,0.0,VALID,97.426,VALID,-0.028,VALID,18.465,VALID,32.0,VALID,0.165,
2017-04-09, 02:32:06,VALID,916.261,VALID,0.0,VALID,97.539,VALID,-0.042,VALID,18.517,VALID,20.0,VALID,0.245,
2017-04-09, 02:33:06,VALID,916.256,VALID,0.0,VALID,97.213,VALID,-0.038,VALID,18.432,VALID,20.0,VALID,0.298,
2017-04-09, 02:34:06,VALID,916.248,VALID,0.0,VALID,97.282,VALID,-0.001,VALID,18.415,VALID,11.0,VALID,0.168,
2017-04-09, 02:35:06,VALID,916.26,VALID,0.0,VALID,97.455,VALID,-0.016,VALID,18.445,VALID,329.0,VALID,0.28,
2017-04-09, 02:36:06,VALID,916.258,VALID,0.0,VALID,97.577,VALID,0.003,VALID,18.492,VALID,327.0,VALID,0.0,
2017-04-09, 02:37:06,VALID,916.274,VALID,0.0,VALID,97.599,VALID,-0.017,VALID,18.539,VALID,307.0,VALID,0.104,
2017-04-09, 02:38:06,VALID,916.285,VALID,0.0,VALID,97.698,VALID,-0.009,VALID,18.604,VALID,283.0,VALID,0.15,
2017-04-09, 02:39:06,VALID,916.294,VALID,0.0,VALID,97.672,VALID,-0.013,VALID,18.653,VALID,272.0,VALID,0.264,
2017-04-09, 02:40:06,VALID,916.302,VALID,0.0,VALID,97.864,VALID,-0.018,VALID,18.727,VALID,270.0,VALID,0.316,
2017-04-09, 02:41:06,VALID,916.317,VALID,0.0,VALID,97.948,VALID,-0.011,VALID,18.786,VALID,281.0,VALID,0.114,
2017-04-09, 02:42:06,VALID,916.331,VALID,0.0,VALID,97.802,VALID,-0.006,VALID,18.753,VALID,320.0,VALID,0.217,
2017-04-09, 02:43:06,VALID,916.326,VALID,0.0,VALID,96.737,VALID,-0.012,VALID,18.431,VALID,352.0,VALID,0.454,
2017-04-09, 02:44:06,VALID,916.338,VALID,0.0,VALID,97.337,VALID,-0.003,VALID,18.445,VALID,5.0,VALID,0.7,
2017-04-09, 02:45:06,VALID,916.34,VALID,0.0,VALID,98.037,VALID,-0.001,VALID,18.659,VALID,9.0,VALID,0.534,
2017-04-09, 02:46:06,VALID,916.349,VALID,0.0,VALID,97.955,VALID,-0.006,VALID,18.722,VALID,8.0,VALID,0.151,
2017-04-09, 02:47:06,VALID,916.351,VALID,0.0,VALID,97.763,VALID,-0.0,VALID,18.704,VALID,7.0,VALID,0.0,
2017-04-09, 02:48:06,VALID,916.35,VALID,0.0,VALID,97.73,VALID,-0.004,VALID,18.707,VALID,1.0,VALID,0.019,
2017-04-09, 02:49:06,VALID,916.339,VALID,0.0,VALID,97.828,VALID,-0.008,VALID,18.756,VALID,327.0,VALID,0.023,
2017-04-09, 02:50:06,VALID,916.341,VALID,0.0,VALID,97.685,VALID,-0.032,VALID,18.749,VALID,342.0,VALID,0.178,
2017-04-09, 02:51:06,VALID,916.325,VALID,0.0,VALID,97.394,VALID,0.024,VALID,18.675,VALID,14.0,VALID,0.65,
2017-04-09, 02:52:06,VALID,916.29,VALID,0.0,VALID,97.532,VALID,0.019,VALID,18.675,VALID,26.0,VALID,0.615,
2017-04-09, 02:53:06,VALID,916.279,VALID,0.0,VALID,97.441,VALID,0.029,VALID,18.658,VALID,28.0,VALID,0.488,
2017-04-09, 02:54:06,VALID,916.276,VALID,0.0,VALID,97.394,VALID,0.02,VALID,18.656,VALID,27.0,VALID,0.329,
2017-04-09, 02:55:06,VALID,916.294,VALID,0.0,VALID,97.307,VALID,0.004,VALID,18.63,VALID,20.0,VALID,0.069,
2017-04-09, 02:56:06,VALID,916.309,VALID,0.0,VALID,97.163,VALID,0.027,VALID,18.597,VALID,19.0,VALID,0.0,
2017-04-09, 02:57:06,VALID,916.328,VALID,0.0,VALID,97.235,VALID,0.033,VALID,18.604,VALID,315.0,VALID,0.138,
2017-04-09, 02:58:06,VALID,916.326,VALID,0.0,VALID,97.436,VALID,0.033,VALID,18.679,VALID,343.0,VALID,0.421,
2017-04-09, 02:59:06,VALID,916.318,VALID,0.0,VALID,97.078,VALID,0.023,VALID,18.643,VALID,360.0,VALID,0.48,
2017-04-09, 03:00:06,VALID,916.321,VALID,0.0,VALID,96.995,VALID,0.043,VALID,18.627,VALID,360.0,VALID,0.487,
2017-04-09, 03:01:06,VALID,916.323,VALID,0.0,VALID,97.257,VALID,0.023,VALID,18.691,VALID,360.0,VALID,0.433,
2017-04-09, 03:02:06,VALID,916.309,VALID,0.0,VALID,97.097,VALID,0.055,VALID,18.71,VALID,6.0,VALID,0.287,
2017-04-09, 03:03:06,VALID,916.306,VALID,0.0,VALID,96.884,VALID,0.046,VALID,18.684,VALID,9.0,VALID,0.112,
2017-04-09, 03:04:06,VALID,916.293,VALID,0.0,VALID,96.783,VALID,0.032,VALID,18.67,VALID,9.0,VALID,0.0,
2017-04-09, 03:05:06,VALID,916.285,VALID,0.0,VALID,96.744,VALID,0.019,VALID,18.654,VALID,7.0,VALID,0.019,
2017-04-09, 03:06:06,VALID,916.271,VALID,0.0,VALID,96.792,VALID,0.004,VALID,18.668,VALID,4.0,VALID,0.011,
2017-04-09, 03:07:06,VALID,916.265,VALID,0.0,VALID,96.77,VALID,0.012,VALID,18.654,VALID,4.0,VALID,0.0,
2017-04-09, 03:08:06,VALID,916.256,VALID,0.0,VALID,96.137,VALID,0.003,VALID,18.546,VALID,4.0,VALID,0.0,
2017-04-09, 03:09:06,VALID,916.248,VALID,0.0,VALID,96.122,VALID,0.003,VALID,18.499,VALID,4.0,VALID,0.0,
2017-04-09, 03:10:06,VALID,916.223,VALID,0.0,VALID,95.989,VALID,0.008,VALID,18.434,VALID,86.0,VALID,0.093,
2017-04-09, 03:11:06,VALID,916.213,VALID,0.0,VALID,96.13,VALID,-0.003,VALID,18.378,VALID,100.0,VALID,0.154,
2017-04-09, 03:12:06,VALID,916.183,VALID,0.0,VALID,96.43,VALID,-0.011,VALID,18.339,VALID,102.0,VALID,0.298,
2017-04-09, 03:13:06,VALID,916.167,VALID,0.0,VALID,96.422,VALID,0.013,VALID,18.266,VALID,108.0,VALID,0.266,
2017-04-09, 03:14:06,VALID,916.148,VALID,0.0,VALID,96.385,VALID,-0.002,VALID,18.192,VALID,108.0,VALID,0.303,
2017-04-09, 03:15:06,VALID,916.143,VALID,0.0,VALID,96.557,VALID,0.011,VALID,18.155,VALID,108.0,VALID,0.222,
2017-04-09, 03:16:06,VALID,916.098,VALID,0.0,VALID,96.719,VALID,0.015,VALID,18.159,VALID,108.0,VALID,0.268,
2017-04-09, 03:17:06,VALID,916.064,VALID,0.0,VALID,97.398,VALID,0.001,VALID,18.298,VALID,108.0,VALID,0.234,
2017-04-09, 03:18:06,VALID,916.036,VALID,0.0,VALID,97.497,VALID,0.011,VALID,18.34,VALID,105.0,VALID,0.255,
2017-04-09, 03:19:06,VALID,916.03,VALID,0.0,VALID,97.685,VALID,0.007,VALID,18.426,VALID,90.0,VALID,0.223,
2017-04-09, 03:20:06,VALID,916.037,VALID,0.0,VALID,97.7,VALID,0.007,VALID,18.457,VALID,87.0,VALID,0.095,
2017-04-09, 03:21:06,VALID,916.041,VALID,0.0,VALID,97.672,VALID,0.011,VALID,18.45,VALID,87.0,VALID,0.005,
2017-04-09, 03:22:06,VALID,916.053,VALID,0.0,VALID,97.496,VALID,0.018,VALID,18.413,VALID,87.0,VALID,0.0,
2017-04-09, 03:23:06,VALID,916.045,VALID,0.0,VALID,97.264,VALID,0.007,VALID,18.343,VALID,87.0,VALID,0.0,
2017-04-09, 03:24:06,VALID,916.025,VALID,0.0,VALID,97.33,VALID,0.024,VALID,18.334,VALID,87.0,VALID,0.002,
2017-04-09, 03:25:06,VALID,916.014,VALID,0.0,VALID,97.33,VALID,0.007,VALID,18.329,VALID,65.0,VALID,0.08,
2017-04-09, 03:26:06,VALID,916.008,VALID,0.0,VALID,97.415,VALID,0.011,VALID,18.357,VALID,32.0,VALID,0.195,
2017-04-09, 03:27:06,VALID,916.007,VALID,0.0,VALID,97.482,VALID,-0.007,VALID,18.376,VALID,3.0,VALID,0.315,
2017-04-09, 03:28:06,VALID,916.011,VALID,0.0,VALID,97.384,VALID,0.01,VALID,18.356,VALID,335.0,VALID,0.488,
2017-04-09, 03:29:06,VALID,916.015,VALID,0.0,VALID,97.693,VALID,0.001,VALID,18.431,VALID,309.0,VALID,0.311,
2017-04-09, 03:30:06,VALID,916.023,VALID,0.0,VALID,97.844,VALID,0.005,VALID,18.531,VALID,279.0,VALID,0.185,
2017-04-09, 03:31:06,VALID,916.018,VALID,0.0,VALID,97.895,VALID,0.004,VALID,18.62,VALID,262.0,VALID,0.186,
2017-04-09, 03:32:06,VALID,916.03,VALID,0.0,VALID,97.843,VALID,0.009,VALID,18.655,VALID,252.0,VALID,0.147,
2017-04-09, 03:33:06,VALID,916.047,VALID,0.0,VALID,97.802,VALID,0.01,VALID,18.658,VALID,239.0,VALID,0.136,
2017-04-09, 03:34:06,VALID,916.045,VALID,0.0,VALID,97.785,VALID,0.006,VALID,18.65,VALID,255.0,VALID,0.261,
2017-04-09, 03:35:06,VALID,916.045,VALID,0.0,VALID,97.557,VALID,0.009,VALID,18.591,VALID,319.0,VALID,0.187,
2017-04-09, 03:36:06,VALID,916.025,VALID,0.0,VALID,97.561,VALID,0.002,VALID,18.58,VALID,329.0,VALID,0.122,
2017-04-09, 03:37:06,VALID,916.018,VALID,0.0,VALID,96.729,VALID,-0.001,VALID,18.387,VALID,337.0,VALID,0.179,
2017-04-09, 03:38:06,VALID,915.989,VALID,0.0,VALID,97.149,VALID,0.006,VALID,18.393,VALID,338.0,VALID,0.218,
2017-04-09, 03:39:06,VALID,915.975,VALID,0.0,VALID,97.471,VALID,-0.004,VALID,18.48,VALID,342.0,VALID,0.204,
2017-04-09, 03:40:06,VALID,915.971,VALID,0.0,VALID,97.379,VALID,-0.008,VALID,18.48,VALID,343.0,VALID,0.023,